MAX VALIER SAT

Last updated on Mon Jul 01 2024 00:02:59 GMT+0000 (Coordinated Universal Time)

1 42778U 17036P 24181.51780098 .07500886 23432-5 86307-3 0 9999 2 42778 97.0566 220.7984 0007714 249.3707 110.6764 16.36858806391577
UTC large
Height (km)
Speed (km/s)
/
Latitude / Longitude
Inclination (degrees)
Orbital Period (minutes)
Azimuth
Elevation
Range (km)
Doppler Factor

Next 0 passes for location: London (51.5072 / 0.1276)

Sorry there are no passes over London.